BVX722 LSZH-LEMH

Flight info

Callsign BVX722
Flight time 1h 16m
Altitude 33000
Route VEBIT T50 ROTOS Z669 ULMES DCT VADAR/N0462F370 DCT GEVEA DCT INCUS/N0468F390 DCT BALSI DCT RETNO DCT TUPOX DCT MTG DCT DIVKO DCT VATIR DCT PIVUS DCT BODEQ DCT VERSO DCT TOSNU L16 SARGO
Aircraft B77W/H-SDE1E2E3FGHIJ2J3J4J5M1RWXY/LB1D1

Departure

Time 2026-04-26 12:36
Airport Zürich Airport (LSZH)

Arrival

Time 2026-04-26 13:53
Airport Menorca Airport (LEMH)
Time Latitude Longitude Altitude Speed Heading
2026-04-26 11:51 47.46203 8.55293 1429 ft 0 kts 189°
2026-04-26 12:20 47.46209 8.55294 1412 ft 4 kts 189°
2026-04-26 12:20 47.46236 8.55301 1406 ft 4 kts 180°
2026-04-26 12:20 47.46258 8.55294 1408 ft 3 kts 147°
2026-04-26 12:20 47.46274 8.55269 1411 ft 4 kts 98°
2026-04-26 12:21 47.46274 8.55233 1406 ft 2 kts 96°
2026-04-26 12:21 47.46275 8.55225 1410 ft 9 kts 96°
2026-04-26 12:25 47.46271 8.55270 1401 ft 9 kts 96°
2026-04-26 12:25 47.46264 8.55365 1406 ft 9 kts 96°
2026-04-26 12:25 47.46257 8.55464 1407 ft 10 kts 95°
2026-04-26 12:26 47.46251 8.55563 1411 ft 10 kts 96°
2026-04-26 12:26 47.46244 8.55662 1402 ft 10 kts 95°
2026-04-26 12:26 47.46237 8.55774 1410 ft 12 kts 95°
2026-04-26 12:26 47.46229 8.55897 1402 ft 12 kts 95°
2026-04-26 12:27 47.46196 8.56009 1412 ft 12 kts 133°
2026-04-26 12:27 47.46136 8.56096 1414 ft 12 kts 136°
2026-04-26 12:27 47.46074 8.56180 1413 ft 12 kts 137°
2026-04-26 12:27 47.46012 8.56264 1414 ft 12 kts 137°
2026-04-26 12:28 47.45950 8.56347 1417 ft 12 kts 137°
2026-04-26 12:28 47.45887 8.56433 1411 ft 13 kts 137°
2026-04-26 12:28 47.45819 8.56526 1412 ft 12 kts 131°
2026-04-26 12:28 47.45796 8.56641 1409 ft 12 kts 97°
2026-04-26 12:29 47.45787 8.56750 1408 ft 5 kts 96°
2026-04-26 12:29 47.45785 8.56773 1404 ft 0 kts 96°
2026-04-26 12:31 47.45785 8.56776 1404 ft 3 kts 96°
2026-04-26 12:31 47.45780 8.56844 1407 ft 8 kts 96°
2026-04-26 12:31 47.45777 8.56897 1406 ft 0 kts 96°
2026-04-26 12:33 47.45775 8.56916 1407 ft 6 kts 96°
2026-04-26 12:33 47.45766 8.56977 1403 ft 6 kts 112°
2026-04-26 12:34 47.45736 8.57022 1408 ft 6 kts 153°
2026-04-26 12:34 47.45692 8.57029 1407 ft 6 kts 192°
2026-04-26 12:34 47.45670 8.56977 1406 ft 7 kts 262°
2026-04-26 12:34 47.45669 8.56955 1403 ft 0 kts 269°
2026-04-26 12:35 47.45669 8.56950 1403 ft 6 kts 269°
2026-04-26 12:36 47.45707 8.56351 1411 ft 97 kts 276°
2026-04-26 12:36 47.45807 8.54946 1405 ft 175 kts 276°
2026-04-26 12:36 47.45901 8.53000 1873 ft 192 kts 274°
2026-04-26 12:36 47.45956 8.51679 2532 ft 191 kts 276°
2026-04-26 12:37 47.46073 8.49726 3427 ft 194 kts 279°
2026-04-26 12:37 47.46199 8.47628 3830 ft 219 kts 271°
2026-04-26 12:37 47.45647 8.45405 4140 ft 248 kts 227°
2026-04-26 12:37 47.44142 8.44076 4746 ft 262 kts 189°
2026-04-26 12:38 47.42329 8.43673 5449 ft 268 kts 195°
2026-04-26 12:38 47.40762 8.42119 6364 ft 276 kts 233°
2026-04-26 12:38 47.39965 8.39580 7369 ft 274 kts 250°
2026-04-26 12:38 47.39256 8.36929 8206 ft 280 kts 243°
2026-04-26 12:39 47.38310 8.34402 9146 ft 281 kts 242°
2026-04-26 12:39 47.37537 8.31716 9917 ft 289 kts 249°
2026-04-26 12:39 47.36774 8.28948 10700 ft 297 kts 246°
2026-04-26 12:39 47.35872 8.26081 11103 ft 323 kts 244°
2026-04-26 12:40 47.34825 8.22976 11341 ft 353 kts 243°
2026-04-26 12:40 47.33648 8.19624 11640 ft 380 kts 243°
2026-04-26 12:40 47.32416 8.16168 12458 ft 391 kts 243°
2026-04-26 12:40 47.31127 8.12562 13697 ft 394 kts 243°
2026-04-26 12:41 47.29854 8.08964 14784 ft 397 kts 244°
2026-04-26 12:41 47.28575 8.05338 15852 ft 401 kts 244°
2026-04-26 12:41 47.27271 8.01659 16786 ft 408 kts 244°
2026-04-26 12:41 47.26030 7.97935 17735 ft 413 kts 247°
2026-04-26 12:42 47.24925 7.94007 18650 ft 418 kts 250°
2026-04-26 12:42 47.23861 7.89993 19455 ft 424 kts 250°
2026-04-26 12:42 47.22771 7.85920 20228 ft 431 kts 249°
2026-04-26 12:42 47.21634 7.81813 20996 ft 436 kts 249°
2026-04-26 12:43 47.20464 7.77667 21746 ft 441 kts 248°
2026-04-26 12:43 47.19119 7.73583 22505 ft 447 kts 242°
2026-04-26 12:43 47.17489 7.69675 23266 ft 452 kts 237°
2026-04-26 12:43 47.15576 7.65980 23948 ft 457 kts 232°
2026-04-26 12:44 47.13563 7.62327 24465 ft 463 kts 232°
2026-04-26 12:44 47.11525 7.58627 24985 ft 468 kts 232°
2026-04-26 12:44 47.09478 7.54889 25547 ft 472 kts 232°
2026-04-26 12:44 47.07423 7.51112 26077 ft 475 kts 233°
2026-04-26 12:45 47.05365 7.47313 26602 ft 477 kts 233°
2026-04-26 12:45 47.03295 7.43501 27059 ft 480 kts 232°
2026-04-26 12:45 47.01202 7.39664 27526 ft 482 kts 232°
2026-04-26 12:45 46.99091 7.35824 27895 ft 487 kts 232°
2026-04-26 12:46 46.96978 7.31987 28052 ft 494 kts 232°
2026-04-26 12:46 46.94819 7.28070 28424 ft 494 kts 232°
2026-04-26 12:46 46.92674 7.24168 29088 ft 490 kts 232°
2026-04-26 12:46 46.90551 7.20306 29800 ft 485 kts 232°
2026-04-26 12:47 46.88444 7.16474 30432 ft 482 kts 232°
2026-04-26 12:47 46.86347 7.12660 30907 ft 481 kts 232°
2026-04-26 12:47 46.84251 7.08853 31201 ft 483 kts 232°
2026-04-26 12:48 46.79987 7.01128 31516 ft 491 kts 232°
2026-04-26 12:48 46.77852 6.97269 31944 ft 488 kts 232°
2026-04-26 12:48 46.75719 6.93422 32391 ft 485 kts 232°
2026-04-26 12:48 46.73597 6.89598 32744 ft 486 kts 232°
2026-04-26 12:49 46.71468 6.85762 32935 ft 488 kts 232°
2026-04-26 12:49 46.69330 6.81915 33260 ft 487 kts 232°
2026-04-26 12:49 46.67201 6.78097 33700 ft 485 kts 232°
2026-04-26 12:49 46.65044 6.74340 34113 ft 483 kts 229°
2026-04-26 12:50 46.62655 6.70915 34422 ft 483 kts 223°
2026-04-26 12:50 46.60052 6.67800 34651 ft 485 kts 219°
2026-04-26 12:50 46.57284 6.64979 34872 ft 487 kts 213°
2026-04-26 12:50 46.54363 6.62458 35124 ft 488 kts 212°
2026-04-26 12:51 46.51429 6.59987 35390 ft 488 kts 212°
2026-04-26 12:51 46.48494 6.57524 35641 ft 488 kts 212°
2026-04-26 12:51 46.45556 6.55051 35874 ft 488 kts 212°
2026-04-26 12:51 46.42631 6.52575 36115 ft 488 kts 212°
2026-04-26 12:52 46.39705 6.50090 36340 ft 488 kts 212°
2026-04-26 12:52 46.36774 6.47596 36563 ft 488 kts 212°
2026-04-26 12:52 46.33852 6.45108 36807 ft 487 kts 212°
2026-04-26 12:52 46.30929 6.42622 37042 ft 488 kts 212°
2026-04-26 12:53 46.27996 6.40130 37090 ft 491 kts 212°
2026-04-26 12:53 46.22081 6.35117 37151 ft 493 kts 212°
2026-04-26 12:54 46.16186 6.30139 37152 ft 490 kts 212°
2026-04-26 12:54 46.10320 6.25195 37151 ft 487 kts 212°
2026-04-26 12:55 46.04474 6.20279 37155 ft 486 kts 212°
2026-04-26 12:55 45.98629 6.15374 37157 ft 486 kts 212°
2026-04-26 12:56 45.92783 6.10479 37161 ft 486 kts 212°
2026-04-26 12:56 45.86788 6.05969 37162 ft 489 kts 204°
2026-04-26 12:57 45.80255 6.03139 37152 ft 493 kts 193°
2026-04-26 12:57 45.73464 6.01654 37153 ft 494 kts 190°
2026-04-26 12:58 45.63252 5.99519 37133 ft 494 kts 191°
2026-04-26 12:58 45.56452 5.98022 37139 ft 494 kts 191°
2026-04-26 12:59 45.49650 5.96528 37128 ft 495 kts 191°
2026-04-26 12:59 45.42907 5.94689 37126 ft 492 kts 194°
2026-04-26 13:00 45.36234 5.92570 37149 ft 491 kts 194°
2026-04-26 13:00 45.29547 5.90451 37138 ft 493 kts 194°
2026-04-26 13:01 45.22849 5.88357 37142 ft 493 kts 194°
2026-04-26 13:01 45.16179 5.86289 37138 ft 494 kts 194°
2026-04-26 13:02 45.09461 5.84212 37140 ft 494 kts 194°
2026-04-26 13:02 45.02747 5.82140 37127 ft 494 kts 194°
2026-04-26 13:03 44.96039 5.80076 37127 ft 493 kts 194°
2026-04-26 13:03 44.89336 5.78017 37116 ft 492 kts 194°
2026-04-26 13:04 44.82689 5.75982 37091 ft 479 kts 194°
2026-04-26 13:04 44.76151 5.73983 37117 ft 485 kts 194°
2026-04-26 13:05 44.69508 5.71952 37130 ft 492 kts 194°
2026-04-26 13:05 44.62790 5.69907 37111 ft 496 kts 194°
2026-04-26 13:06 44.56033 5.67856 37107 ft 498 kts 194°
2026-04-26 13:06 44.49260 5.65804 37097 ft 498 kts 194°
2026-04-26 13:07 44.42485 5.63756 37106 ft 497 kts 194°
2026-04-26 13:07 44.35823 5.61332 37102 ft 493 kts 202°
2026-04-26 13:08 44.29471 5.57797 37114 ft 491 kts 204°
2026-04-26 13:08 44.23143 5.54254 37107 ft 489 kts 204°
2026-04-26 13:09 44.16811 5.50772 37107 ft 489 kts 203°
2026-04-26 13:09 44.10486 5.47320 37108 ft 488 kts 203°
2026-04-26 13:10 44.04164 5.43874 37107 ft 488 kts 204°
2026-04-26 13:10 43.97845 5.40437 37107 ft 488 kts 203°
2026-04-26 13:11 43.91515 5.37014 37108 ft 488 kts 203°
2026-04-26 13:11 43.85178 5.33601 37116 ft 489 kts 203°
2026-04-26 13:12 43.78837 5.30190 37120 ft 490 kts 203°
2026-04-26 13:12 43.72479 5.26775 37127 ft 490 kts 203°
2026-04-26 13:13 43.66127 5.23371 37125 ft 490 kts 203°
2026-04-26 13:13 43.59766 5.19969 37132 ft 490 kts 203°
2026-04-26 13:14 43.53410 5.16577 37128 ft 490 kts 203°
2026-04-26 13:14 43.47046 5.13188 37123 ft 490 kts 203°
2026-04-26 13:15 43.40711 5.09766 37128 ft 489 kts 206°
2026-04-26 13:15 43.35737 5.06141 37134 ft 486 kts 215°
2026-04-26 13:16 43.29299 4.99996 37129 ft 485 kts 217°
2026-04-26 13:16 43.23755 4.94718 37132 ft 485 kts 216°
2026-04-26 13:17 43.15402 4.86873 37135 ft 485 kts 216°
2026-04-26 13:18 43.07040 4.79049 37145 ft 486 kts 216°
2026-04-26 13:19 42.98268 4.72066 37129 ft 487 kts 211°
2026-04-26 13:19 42.92315 4.67623 37130 ft 488 kts 211°
2026-04-26 13:20 42.86373 4.63159 37144 ft 488 kts 211°
2026-04-26 13:20 42.80432 4.58681 37141 ft 488 kts 211°
2026-04-26 13:21 42.75493 4.54963 37137 ft 488 kts 211°
2026-04-26 13:21 42.68543 4.49744 37139 ft 488 kts 211°
2026-04-26 13:22 42.62596 4.45290 37141 ft 488 kts 211°
2026-04-26 13:22 42.57651 4.41594 37123 ft 488 kts 211°
2026-04-26 13:23 42.51699 4.37154 37126 ft 488 kts 211°
2026-04-26 13:23 42.45747 4.32724 37136 ft 488 kts 211°
2026-04-26 13:24 42.39791 4.28301 37138 ft 488 kts 211°
2026-04-26 13:24 42.33831 4.23884 37141 ft 489 kts 210°
2026-04-26 13:25 42.27864 4.19470 37136 ft 489 kts 210°
2026-04-26 13:25 42.21895 4.15062 37141 ft 489 kts 210°
2026-04-26 13:26 42.15918 4.10661 37139 ft 490 kts 210°
2026-04-26 13:26 42.09935 4.06261 37143 ft 490 kts 210°
2026-04-26 13:27 42.03949 4.01863 37146 ft 490 kts 210°
2026-04-26 13:27 41.98003 3.97503 36782 ft 479 kts 210°
2026-04-26 13:27 41.95075 3.95462 36154 ft 474 kts 206°
2026-04-26 13:28 41.92004 3.93842 35530 ft 471 kts 200°
2026-04-26 13:28 41.88885 3.92595 35013 ft 466 kts 195°
2026-04-26 13:28 41.85724 3.91747 34522 ft 461 kts 191°
2026-04-26 13:28 41.82574 3.91048 34021 ft 456 kts 191°
2026-04-26 13:29 41.79457 3.90359 33479 ft 451 kts 191°
2026-04-26 13:29 41.77414 3.89900 33150 ft 448 kts 191°
2026-04-26 13:29 41.73378 3.88976 32516 ft 441 kts 191°
2026-04-26 13:29 41.70369 3.88278 32046 ft 436 kts 191°
2026-04-26 13:30 41.67394 3.87583 31584 ft 432 kts 191°
2026-04-26 13:30 41.64452 3.86898 31140 ft 428 kts 191°
2026-04-26 13:30 41.61529 3.86220 30694 ft 424 kts 191°
2026-04-26 13:30 41.58637 3.85552 30250 ft 420 kts 191°
2026-04-26 13:31 41.55765 3.84896 29748 ft 417 kts 191°
2026-04-26 13:31 41.52923 3.84249 29254 ft 413 kts 191°
2026-04-26 13:31 41.50103 3.83608 28764 ft 410 kts 191°
2026-04-26 13:31 41.47293 3.82968 28104 ft 410 kts 191°
2026-04-26 13:32 41.44461 3.82322 27289 ft 415 kts 191°
2026-04-26 13:32 41.41608 3.81671 26585 ft 417 kts 190°
2026-04-26 13:32 41.38737 3.81018 25872 ft 420 kts 190°
2026-04-26 13:32 41.35857 3.80362 25223 ft 421 kts 191°
2026-04-26 13:33 41.32976 3.79708 24661 ft 419 kts 191°
2026-04-26 13:33 41.30110 3.79057 24175 ft 416 kts 190°
2026-04-26 13:33 41.27273 3.78412 23710 ft 412 kts 190°
2026-04-26 13:33 41.24452 3.77773 23134 ft 410 kts 190°
2026-04-26 13:34 41.21657 3.77140 22614 ft 406 kts 190°
2026-04-26 13:34 41.18883 3.76519 22126 ft 402 kts 189°
2026-04-26 13:34 41.16113 3.76237 21631 ft 399 kts 180°
2026-04-26 13:34 41.14284 3.76372 21308 ft 397 kts 174°
2026-04-26 13:35 41.10676 3.77277 20655 ft 393 kts 165°
2026-04-26 13:35 41.08059 3.78279 20173 ft 390 kts 165°
2026-04-26 13:35 41.05459 3.79258 19698 ft 387 kts 164°
2026-04-26 13:35 41.02877 3.80206 19267 ft 383 kts 165°
2026-04-26 13:36 41.00319 3.81132 18823 ft 380 kts 165°
2026-04-26 13:36 40.97772 3.82053 18315 ft 379 kts 165°
2026-04-26 13:36 40.95233 3.82970 17769 ft 377 kts 165°
2026-04-26 13:36 40.92709 3.83881 17245 ft 375 kts 165°
2026-04-26 13:37 40.90227 3.84777 16742 ft 373 kts 164°
2026-04-26 13:37 40.87727 3.85679 16252 ft 372 kts 164°
2026-04-26 13:37 40.85204 3.86588 15746 ft 370 kts 164°
2026-04-26 13:37 40.82734 3.87477 15298 ft 367 kts 164°
2026-04-26 13:38 40.80311 3.88349 14860 ft 364 kts 164°
2026-04-26 13:38 40.77872 3.89226 14403 ft 363 kts 164°
2026-04-26 13:38 40.75442 3.90099 13943 ft 361 kts 163°
2026-04-26 13:38 40.73025 3.90968 13452 ft 359 kts 163°
2026-04-26 13:39 40.70626 3.91828 13005 ft 356 kts 163°
2026-04-26 13:39 40.68246 3.92681 12569 ft 353 kts 164°
2026-04-26 13:39 40.65889 3.93526 12134 ft 350 kts 164°
2026-04-26 13:39 40.63547 3.94364 11697 ft 347 kts 164°
2026-04-26 13:40 40.61223 3.95195 11269 ft 345 kts 164°
2026-04-26 13:40 40.58916 3.96020 10851 ft 343 kts 164°
2026-04-26 13:40 40.56626 3.96837 10515 ft 338 kts 164°
2026-04-26 13:40 40.54404 3.97630 10427 ft 325 kts 164°
2026-04-26 13:41 40.52260 3.98395 10302 ft 314 kts 164°
2026-04-26 13:41 40.50191 3.99133 10233 ft 305 kts 164°
2026-04-26 13:41 40.48131 3.99867 10191 ft 307 kts 164°
2026-04-26 13:41 40.46073 4.00599 10175 ft 305 kts 164°
2026-04-26 13:42 40.44034 4.01323 10134 ft 303 kts 164°
2026-04-26 13:42 40.42013 4.02041 10027 ft 298 kts 164°
2026-04-26 13:42 40.40040 4.02740 9928 ft 289 kts 163°
2026-04-26 13:42 40.38126 4.03418 9780 ft 281 kts 163°
2026-04-26 13:43 40.36252 4.04082 9532 ft 277 kts 163°
2026-04-26 13:43 40.34392 4.04742 9198 ft 276 kts 163°
2026-04-26 13:43 40.32538 4.05398 8863 ft 276 kts 163°
2026-04-26 13:43 40.30690 4.06052 8560 ft 274 kts 163°
2026-04-26 13:44 40.28855 4.06701 8262 ft 273 kts 163°
2026-04-26 13:44 40.27025 4.07347 7959 ft 272 kts 163°
2026-04-26 13:44 40.25205 4.07990 7659 ft 270 kts 163°
2026-04-26 13:44 40.23394 4.08629 7367 ft 269 kts 163°
2026-04-26 13:45 40.21591 4.09265 7073 ft 268 kts 163°
2026-04-26 13:45 40.19800 4.09896 6785 ft 266 kts 163°
2026-04-26 13:45 40.18014 4.10526 6500 ft 265 kts 162°
2026-04-26 13:45 40.16241 4.11150 6221 ft 263 kts 162°
2026-04-26 13:46 40.14481 4.11770 5944 ft 260 kts 162°
2026-04-26 13:46 40.12749 4.12379 5737 ft 256 kts 163°
2026-04-26 13:46 40.11036 4.12982 5465 ft 255 kts 163°
2026-04-26 13:46 40.09388 4.13773 5157 ft 252 kts 144°
2026-04-26 13:47 40.08219 4.15456 4871 ft 255 kts 115°
2026-04-26 13:47 40.07802 4.17724 4366 ft 261 kts 90°
2026-04-26 13:47 40.07950 4.20064 4047 ft 257 kts 84°
2026-04-26 13:47 40.08031 4.22328 3802 ft 241 kts 97°
2026-04-26 13:48 40.07426 4.24253 3663 ft 228 kts 132°
2026-04-26 13:48 40.06118 4.25354 3571 ft 224 kts 166°
2026-04-26 13:48 40.04580 4.25436 3515 ft 221 kts 182°
2026-04-26 13:48 40.03042 4.25320 3364 ft 222 kts 185°
2026-04-26 13:49 40.01515 4.25043 3077 ft 218 kts 189°
2026-04-26 13:49 40.00064 4.24725 2839 ft 203 kts 189°
2026-04-26 13:49 39.98706 4.24441 2569 ft 194 kts 189°
2026-04-26 13:49 39.97424 4.24170 2326 ft 185 kts 189°
2026-04-26 13:50 39.96189 4.23914 2107 ft 173 kts 189°
2026-04-26 13:50 39.95039 4.23679 1858 ft 162 kts 188°
2026-04-26 13:50 39.94002 4.23464 1667 ft 140 kts 187°
2026-04-26 13:50 39.93055 4.23269 1491 ft 140 kts 188°
2026-04-26 13:51 39.92091 4.23068 1301 ft 140 kts 188°
2026-04-26 13:51 39.91148 4.22874 1133 ft 138 kts 187°
2026-04-26 13:51 39.90191 4.22673 920 ft 139 kts 186°
2026-04-26 13:51 39.89229 4.22477 749 ft 141 kts 186°
2026-04-26 13:52 39.88260 4.22253 562 ft 140 kts 188°
2026-04-26 13:52 39.87294 4.22075 377 ft 141 kts 188°
2026-04-26 13:52 39.86359 4.21889 306 ft 125 kts 188°
2026-04-26 13:52 39.85756 4.21764 305 ft 55 kts 188°
2026-04-26 13:53 39.85486 4.21804 302 ft 25 kts 160°
2026-04-26 13:53 39.85415 4.21861 301 ft 6 kts 129°
2026-04-26 13:53 39.85419 4.21914 301 ft 7 kts 49°
2026-04-26 13:53 39.85461 4.21936 300 ft 7 kts 14°
2026-04-26 13:54 39.85533 4.21955 303 ft 12 kts
2026-04-26 13:54 39.85617 4.21969 302 ft 12 kts
2026-04-26 13:54 39.85703 4.21986 305 ft 13 kts 11°
2026-04-26 13:55 39.85961 4.22041 303 ft 23 kts
2026-04-26 13:55 39.86052 4.22059 307 ft 14 kts
2026-04-26 13:55 39.86187 4.22216 305 ft 12 kts 72°
2026-04-26 13:56 39.86252 4.22270 309 ft 12 kts 14°
2026-04-26 13:56 39.86325 4.22288 308 ft 6 kts
2026-04-26 13:56 39.86365 4.22295 308 ft 5 kts 11°
2026-04-26 13:56 39.86380 4.22328 311 ft 4 kts 88°
2026-04-26 13:57 39.86377 4.22361 309 ft 3 kts 102°
2026-04-26 13:57 39.86375 4.22372 309 ft 1 kts 102°
2026-04-26 13:57 39.86372 4.22388 308 ft 0 kts 103°